Skip Page Navigation
NASA JPL Caltech
NASA Logo - Jet Propulsion Laboratory + View the NASA Portal
+ Center for Near-Earth Object Studies
JPL Home Earth Solar System Stars & Galaxies Technology
JPL Solar System Dynamics
BODIES ORBITS EPHEMERIDES TOOLS PHYSICAL DATA DISCOVERY FAQ SITE MAP
JPL Small-Body Database Browser
Search: [ help ]  
(2019 JZ6)
Classification: Apollo [NEO]          SPK-ID: 3841897
Ephemeris | Orbit Diagram | Orbital Elements | Mission Design | Physical Parameters | Close-Approach Data ]

[ show orbit diagram ]
Orbital Elements at Epoch 2458612.5 (2019-May-09.0) TDB
Reference: JPL 1 (heliocentric ecliptic J2000)
 Element Value Uncertainty (1-sigma)   Units 
e .9633213451174769 0.0018072  
a 2.475481322247514 0.073735 au
q .09079732508684848 0.0017693 au
i 24.22940180648279 0.53648 deg
node 61.69757812065689 0.4501 deg
peri 2.53797744664052 0.25779 deg
M 15.43937066486926 0.72675 deg
tp 2458551.488036650259
(2019-Mar-08.98803665)
0.14671 TDB
period 1422.61671687722
3.89
63.561
0.174
d
yr
n .2530548078967008 0.011306 deg/d
Q 4.860165319408179 0.14477 au
  Orbit Determination Parameters
   # obs. used (total)      13  
   data-arc span      6 days  
   first obs. used      2019-05-08  
   last obs. used      2019-05-14  
   planetary ephem.      DE431  
   SB-pert. ephem.      SB431-N16  
   condition code      9  
   norm. resid. RMS      .31291  
   source      ORB  
   producer      Otto Matic  
   solution date      2019-May-14 08:14:18  

Additional Information
 Earth MOID = .199759 au 
 Jupiter MOID = .523271 au 
 T_jup = 2.440 
[ show covariance matrix ]

Ephemeris | Orbit Diagram | Orbital Elements | Mission Design | Physical Parameters | Close-Approach Data ]

Physical Parameter Table
Parameter Symbol Value Units Sigma Reference Notes
absolute magnitude H 21.0   .30033 MPO467602 autocmod 2.6q

[ show close-approach data ]
Ephemeris | Orbit Diagram | Orbital Elements | Mission Design | Physical Parameters | Close-Approach Data ]
ABOUT SSD CREDITS/AWARDS PRIVACY/COPYRIGHT GLOSSARY LINKS
FirstGov 2020-Dec-01 13:31 UT
(server date/time)  
NASA Home Page
Site Manager:   Ryan S. Park
Webmaster  Alan B. Chamberlin